Time,TemperatureF,DewpointF,PressureIn,WindDirection,WindDirectionDegrees,WindSpeedMPH,WindSpeedGustMPH,Humidity,HourlyPrecipIn,Conditions,Clouds,dailyrainin,SoftwareType,DateUTC
2013-10-08 00:01:00,51.6,47.5,29.96,SW,233,0.0,0.0,86,0.00,,,0.00,meteobridge,2013-10-08 04:01:00,
2013-10-08 00:08:00,51.4,47.7,29.96,SW,235,0.0,0.0,87,0.00,,,0.00,meteobridge,2013-10-08 04:08:00,
2013-10-08 00:10:00,51.1,47.1,29.96,SW,235,0.0,0.0,86,0.00,,,0.00,meteobridge,2013-10-08 04:10:00,
2013-10-08 00:16:00,50.7,47.3,29.97,SW,235,0.0,0.0,88,0.00,,,0.00,meteobridge,2013-10-08 04:16:00,
2013-10-08 00:23:00,50.4,47.3,29.97,SW,235,0.0,0.0,89,0.00,,,0.00,meteobridge,2013-10-08 04:23:00,
2013-10-08 00:27:00,50.2,47.1,29.97,SW,235,0.0,0.0,89,0.00,,,0.00,meteobridge,2013-10-08 04:27:00,
2013-10-08 00:33:00,49.8,46.9,29.97,SW,235,0.0,0.0,90,0.00,,,0.00,meteobridge,2013-10-08 04:33:00,
2013-10-08 00:42:00,49.5,46.9,29.97,SW,235,0.0,0.0,91,0.00,,,0.00,meteobridge,2013-10-08 04:42:00,
2013-10-08 00:50:00,49.1,46.9,29.98,SW,236,0.0,0.0,92,0.00,,,0.00,meteobridge,2013-10-08 04:50:00,
2013-10-08 00:56:00,48.7,46.2,29.98,SW,235,0.0,0.0,91,0.00,,,0.00,meteobridge,2013-10-08 04:56:00,
2013-10-08 01:03:00,48.6,46.0,29.98,SW,235,0.0,0.0,91,0.00,,,0.00,meteobridge,2013-10-08 05:03:00,
2013-10-08 01:11:00,48.4,46.2,29.99,SW,235,0.0,0.0,92,0.00,,,0.00,meteobridge,2013-10-08 05:11:00,
2013-10-08 01:17:00,48.4,46.2,29.99,SW,235,0.0,0.0,92,0.00,,,0.00,meteobridge,2013-10-08 05:17:00,
2013-10-08 01:24:00,48.0,45.9,30.00,SW,235,0.0,0.0,92,0.00,,,0.00,meteobridge,2013-10-08 05:24:00,
2013-10-08 01:30:00,47.8,45.7,30.00,SW,235,0.0,0.0,92,0.00,,,0.00,meteobridge,2013-10-08 05:30:00,
2013-10-08 01:36:00,47.7,45.7,30.01,SW,235,0.0,0.0,93,0.00,,,0.00,meteobridge,2013-10-08 05:36:00,
2013-10-08 01:38:00,47.7,45.7,30.01,SW,235,0.0,0.0,93,0.00,,,0.00,meteobridge,2013-10-08 05:38:00,
2013-10-08 01:45:00,47.5,45.5,30.01,SW,235,0.0,0.0,93,0.00,,,0.00,meteobridge,2013-10-08 05:45:00,
2013-10-08 01:51:00,47.5,45.9,30.01,SW,235,0.0,0.0,94,0.00,,,0.00,meteobridge,2013-10-08 05:51:00,
2013-10-08 01:57:00,47.5,45.9,30.02,SW,235,0.0,0.0,94,0.00,,,0.00,meteobridge,2013-10-08 05:57:00,
2013-10-08 02:04:00,47.3,45.3,30.01,SW,235,0.0,0.0,93,0.00,,,0.00,meteobridge,2013-10-08 06:04:00,
2013-10-08 02:10:00,47.3,45.7,30.02,SW,235,0.0,0.0,94,0.00,,,0.00,meteobridge,2013-10-08 06:10:00,
2013-10-08 02:16:00,47.3,45.7,30.02,SW,233,0.0,0.0,94,0.00,,,0.00,meteobridge,2013-10-08 06:16:00,
2013-10-08 02:23:00,47.3,45.7,30.02,SW,235,0.0,0.0,94,0.00,,,0.00,meteobridge,2013-10-08 06:23:00,
2013-10-08 02:31:00,47.5,45.5,30.03,West,281,0.0,0.0,93,0.00,,,0.00,meteobridge,2013-10-08 06:31:00,
2013-10-08 02:37:00,47.8,45.7,30.02,NW,308,0.0,0.0,92,0.00,,,0.00,meteobridge,2013-10-08 06:37:00,
2013-10-08 02:46:00,48.0,45.5,30.03,West,277,0.0,2.0,91,0.00,,,0.00,meteobridge,2013-10-08 06:46:00,
2013-10-08 02:52:00,48.0,45.9,30.03,NNW,342,0.0,0.0,92,0.00,,,0.00,meteobridge,2013-10-08 06:52:00,
2013-10-08 02:58:00,47.8,45.3,30.03,West,278,0.0,0.0,91,0.00,,,0.00,meteobridge,2013-10-08 06:58:00,
2013-10-08 03:05:00,47.7,45.1,30.03,WSW,246,0.0,0.0,91,0.00,,,0.00,meteobridge,2013-10-08 07:05:00,
2013-10-08 03:11:00,47.7,45.5,30.03,WSW,256,0.0,0.0,92,0.00,,,0.00,meteobridge,2013-10-08 07:11:00,
2013-10-08 03:17:00,47.5,45.3,30.03,WSW,256,0.0,0.0,92,0.00,,,0.00,meteobridge,2013-10-08 07:17:00,
2013-10-08 03:23:00,47.3,45.1,30.03,WSW,257,0.0,0.0,92,0.00,,,0.00,meteobridge,2013-10-08 07:23:00,
2013-10-08 03:30:00,47.1,45.1,30.04,West,276,0.0,0.0,93,0.00,,,0.00,meteobridge,2013-10-08 07:30:00,
2013-10-08 03:36:00,46.9,45.0,30.04,West,276,0.0,0.0,93,0.00,,,0.00,meteobridge,2013-10-08 07:36:00,
2013-10-08 03:43:00,46.6,44.6,30.04,West,276,0.0,0.0,93,0.00,,,0.00,meteobridge,2013-10-08 07:43:00,
2013-10-08 03:51:00,46.6,44.6,30.04,NE,49,0.0,0.0,93,0.00,,,0.00,meteobridge,2013-10-08 07:51:00,
2013-10-08 03:57:00,46.4,44.4,30.05,NE,49,0.0,0.0,93,0.00,,,0.00,meteobridge,2013-10-08 07:57:00,
2013-10-08 04:04:00,46.2,44.6,30.05,NW,304,0.0,0.0,94,0.00,,,0.00,meteobridge,2013-10-08 08:04:00,
2013-10-08 04:10:00,46.0,44.4,30.05,North,8,0.0,0.0,94,0.00,,,0.00,meteobridge,2013-10-08 08:10:00,
2013-10-08 04:16:00,46.2,44.2,30.06,NNW,346,0.0,0.0,93,0.00,,,0.00,meteobridge,2013-10-08 08:16:00,
2013-10-08 04:22:00,46.8,44.8,30.06,NW,311,0.0,0.0,93,0.00,,,0.00,meteobridge,2013-10-08 08:22:00,
2013-10-08 04:31:00,47.3,44.8,30.07,NW,325,0.0,0.0,91,0.00,,,0.00,meteobridge,2013-10-08 08:31:00,
2013-10-08 04:37:00,47.1,44.6,30.07,SSW,194,0.0,0.0,91,0.00,,,0.00,meteobridge,2013-10-08 08:37:00,
2013-10-08 04:43:00,46.9,44.8,30.08,SSW,194,0.0,0.0,92,0.00,,,0.00,meteobridge,2013-10-08 08:43:00,
2013-10-08 04:52:00,47.1,44.6,30.08,West,268,0.0,0.0,91,0.00,,,0.00,meteobridge,2013-10-08 08:52:00,
2013-10-08 05:00:00,47.5,44.8,30.08,SW,231,0.9,0.9,90,0.00,,,0.00,meteobridge,2013-10-08 09:00:00,
2013-10-08 05:07:00,47.7,44.6,30.09,SW,235,0.0,0.0,89,0.00,,,0.00,meteobridge,2013-10-08 09:07:00,
2013-10-08 05:13:00,47.5,44.8,30.09,NW,309,0.0,0.0,90,0.00,,,0.00,meteobridge,2013-10-08 09:13:00,
2013-10-08 05:19:00,47.3,44.6,30.10,ENE,75,0.0,0.0,90,0.00,,,0.00,meteobridge,2013-10-08 09:19:00,
2013-10-08 05:25:00,47.3,44.6,30.10,ESE,103,0.0,0.0,90,0.00,,,0.00,meteobridge,2013-10-08 09:25:00,
2013-10-08 05:32:00,47.3,44.6,30.11,WSW,257,0.0,0.0,90,0.00,,,0.00,meteobridge,2013-10-08 09:32:00,
2013-10-08 05:40:00,47.3,44.6,30.11,NNW,347,0.0,2.0,90,0.00,,,0.00,meteobridge,2013-10-08 09:40:00,
2013-10-08 05:47:00,47.1,44.4,30.11,East,89,0.9,4.0,90,0.00,,,0.00,meteobridge,2013-10-08 09:47:00,
2013-10-08 05:53:00,47.1,44.4,30.11,NE,51,0.0,4.0,90,0.00,,,0.00,meteobridge,2013-10-08 09:53:00,
2013-10-08 06:01:00,47.1,44.4,30.11,West,260,0.0,0.0,90,0.00,,,0.00,meteobridge,2013-10-08 10:01:00,
2013-10-08 06:07:00,47.1,44.4,30.11,East,82,0.0,2.0,90,0.00,,,0.00,meteobridge,2013-10-08 10:07:00,
2013-10-08 06:14:00,47.1,44.4,30.11,WNW,301,0.0,0.9,90,0.00,,,0.00,meteobridge,2013-10-08 10:14:00,
2013-10-08 06:20:00,46.9,44.2,30.11,NE,50,0.0,0.0,90,0.00,,,0.00,meteobridge,2013-10-08 10:20:00,
2013-10-08 06:26:00,46.9,44.2,30.12,WSW,240,0.0,0.0,90,0.00,,,0.00,meteobridge,2013-10-08 10:26:00,
2013-10-08 06:37:00,46.8,44.1,30.12,WSW,250,0.0,0.9,90,0.00,,,0.00,meteobridge,2013-10-08 10:37:00,
2013-10-08 06:43:00,46.8,44.2,30.12,NE,45,0.0,0.0,91,0.00,,,0.00,meteobridge,2013-10-08 10:43:00,
2013-10-08 06:52:00,46.6,44.1,30.13,North,11,0.0,0.0,91,0.00,,,0.00,meteobridge,2013-10-08 10:52:00,
2013-10-08 07:00:00,46.4,43.9,30.13,North,352,0.0,0.0,91,0.00,,,0.00,meteobridge,2013-10-08 11:00:00,
2013-10-08 07:06:00,46.2,43.7,30.14,NNW,336,0.0,0.0,91,0.00,,,0.00,meteobridge,2013-10-08 11:06:00,
2013-10-08 07:12:00,46.2,43.7,30.14,NNW,328,0.0,0.0,91,0.00,,,0.00,meteobridge,2013-10-08 11:12:00,
2013-10-08 07:19:00,46.2,43.7,30.14,NNW,337,0.0,0.0,91,0.00,,,0.00,meteobridge,2013-10-08 11:19:00,
2013-10-08 07:25:00,46.0,43.9,30.15,SW,236,0.0,0.0,92,0.00,,,0.00,meteobridge,2013-10-08 11:25:00,
2013-10-08 07:31:00,46.0,43.9,30.15,ENE,63,0.0,0.0,92,0.00,,,0.00,meteobridge,2013-10-08 11:31:00,
2013-10-08 07:37:00,46.0,43.9,30.15,NE,53,0.0,0.0,92,0.00,,,0.00,meteobridge,2013-10-08 11:37:00,
2013-10-08 07:44:00,46.2,44.1,30.15,WNW,282,0.0,0.0,92,0.00,,,0.00,meteobridge,2013-10-08 11:44:00,
2013-10-08 07:50:00,46.6,44.4,30.16,NNE,29,0.0,0.0,92,0.00,,,0.00,meteobridge,2013-10-08 11:50:00,
2013-10-08 07:56:00,46.8,44.6,30.16,North,3,0.9,2.0,92,0.00,,,0.00,meteobridge,2013-10-08 11:56:00,
2013-10-08 08:03:00,47.1,44.6,30.17,West,273,0.0,2.0,91,0.00,,,0.00,meteobridge,2013-10-08 12:03:00,
2013-10-08 08:11:00,47.5,45.0,30.18,North,359,0.0,0.9,91,0.00,,,0.00,meteobridge,2013-10-08 12:11:00,
2013-10-08 08:17:00,47.8,45.0,30.19,NNW,342,2.0,4.0,90,0.00,,,0.00,meteobridge,2013-10-08 12:17:00,
2013-10-08 08:23:00,48.4,45.5,30.19,WSW,240,0.0,0.0,90,0.00,,,0.00,meteobridge,2013-10-08 12:23:00,
2013-10-08 08:32:00,48.7,45.7,30.19,NNE,16,0.0,0.0,89,0.00,,,0.00,meteobridge,2013-10-08 12:32:00,
2013-10-08 08:38:00,48.9,46.0,30.20,WNW,291,0.0,0.0,90,0.00,,,0.00,meteobridge,2013-10-08 12:38:00,
2013-10-08 08:44:00,49.1,46.0,30.21,West,281,0.0,0.0,89,0.00,,,0.00,meteobridge,2013-10-08 12:44:00,
2013-10-08 08:51:00,49.3,46.2,30.20,North,5,0.0,0.9,89,0.00,,,0.00,meteobridge,2013-10-08 12:51:00,
2013-10-08 08:57:00,49.6,46.6,30.21,NNE,19,0.0,0.0,89,0.00,,,0.00,meteobridge,2013-10-08 12:57:00,
2013-10-08 09:03:00,50.5,47.7,30.20,North,8,0.0,0.0,90,0.00,,,0.00,meteobridge,2013-10-08 13:03:00,
2013-10-08 09:09:00,51.3,48.4,30.20,West,260,0.0,0.9,90,0.00,,,0.00,meteobridge,2013-10-08 13:09:00,
2013-10-08 09:15:00,52.2,49.1,30.21,ESE,108,0.9,0.9,89,0.00,,,0.00,meteobridge,2013-10-08 13:15:00,
2013-10-08 09:21:00,53.1,48.9,30.21,East,87,0.9,2.0,86,0.00,,,0.00,meteobridge,2013-10-08 13:21:00,
2013-10-08 09:28:00,53.2,48.6,30.22,ENE,72,0.9,2.0,84,0.00,,,0.00,meteobridge,2013-10-08 13:28:00,
2013-10-08 09:34:00,53.4,47.7,30.22,WNW,301,0.0,0.0,81,0.00,,,0.00,meteobridge,2013-10-08 13:34:00,
2013-10-08 09:40:00,54.7,48.6,30.22,West,278,0.0,0.9,80,0.00,,,0.00,meteobridge,2013-10-08 13:40:00,
2013-10-08 09:46:00,54.7,48.6,30.22,East,84,0.0,0.0,80,0.00,,,0.00,meteobridge,2013-10-08 13:46:00,
2013-10-08 09:52:00,54.9,49.1,30.22,NE,38,0.9,0.9,81,0.00,,,0.00,meteobridge,2013-10-08 13:52:00,
2013-10-08 09:58:00,55.2,48.7,30.22,SW,221,0.0,0.0,79,0.00,,,0.00,meteobridge,2013-10-08 13:58:00,
2013-10-08 10:04:00,55.8,48.9,30.22,East,81,2.9,2.9,78,0.00,,,0.00,meteobridge,2013-10-08 14:04:00,
2013-10-08 10:11:00,56.1,48.9,30.23,NE,56,0.9,2.0,77,0.00,,,0.00,meteobridge,2013-10-08 14:11:00,
2013-10-08 10:17:00,56.8,48.2,30.22,SE,129,0.0,2.9,73,0.00,,,0.00,meteobridge,2013-10-08 14:17:00,
2013-10-08 10:23:00,57.0,48.0,30.22,NE,51,0.0,4.9,72,0.00,,,0.00,meteobridge,2013-10-08 14:23:00,
2013-10-08 10:29:00,57.2,48.2,30.22,ENE,76,0.0,4.0,72,0.00,,,0.00,meteobridge,2013-10-08 14:29:00,
2013-10-08 10:35:00,57.4,48.7,30.23,NE,44,0.0,2.9,73,0.00,,,0.00,meteobridge,2013-10-08 14:35:00,
2013-10-08 10:42:00,57.6,48.6,30.23,SE,129,0.0,2.0,72,0.00,,,0.00,meteobridge,2013-10-08 14:42:00,
2013-10-08 10:48:00,57.7,48.4,30.23,NNE,25,0.9,2.0,71,0.00,,,0.00,meteobridge,2013-10-08 14:48:00,
2013-10-08 10:54:00,57.9,48.9,30.23,ESE,112,4.0,4.0,72,0.00,,,0.00,meteobridge,2013-10-08 14:54:00,
2013-10-08 11:00:00,58.5,48.0,30.22,West,262,2.0,2.0,68,0.00,,,0.00,meteobridge,2013-10-08 15:00:00,
2013-10-08 11:06:00,58.6,46.9,30.22,North,9,4.0,4.0,65,0.00,,,0.00,meteobridge,2013-10-08 15:06:00,
2013-10-08 11:12:00,58.3,46.6,30.22,SSE,167,0.0,4.9,65,0.00,,,0.00,meteobridge,2013-10-08 15:12:00,
2013-10-08 11:20:00,58.3,46.6,30.22,East,87,0.9,2.0,65,0.00,,,0.00,meteobridge,2013-10-08 15:20:00,
2013-10-08 11:26:00,58.6,46.6,30.22,West,261,0.9,2.9,64,0.00,,,0.00,meteobridge,2013-10-08 15:26:00,
2013-10-08 11:32:00,58.6,45.3,30.23,East,101,2.9,2.9,61,0.00,,,0.00,meteobridge,2013-10-08 15:32:00,
2013-10-08 11:39:00,58.5,45.5,30.23,West,281,2.0,2.0,62,0.00,,,0.00,meteobridge,2013-10-08 15:39:00,
2013-10-08 11:45:00,58.8,46.2,30.23,NNE,18,4.0,4.0,63,0.00,,,0.00,meteobridge,2013-10-08 15:45:00,
2013-10-08 11:51:00,58.8,45.0,30.23,ESE,108,0.9,6.0,60,0.00,,,0.00,meteobridge,2013-10-08 15:51:00,
2013-10-08 11:57:00,58.6,45.3,30.23,East,82,0.0,4.9,61,0.00,,,0.00,meteobridge,2013-10-08 15:57:00,
2013-10-08 12:03:00,59.0,46.4,30.24,ENE,75,0.0,2.9,63,0.00,,,0.00,meteobridge,2013-10-08 16:03:00,
2013-10-08 12:09:00,59.2,47.5,30.24,NNE,32,2.9,2.9,65,0.00,,,0.00,meteobridge,2013-10-08 16:09:00,
2013-10-08 12:16:00,59.4,45.9,30.23,NNE,16,2.0,4.9,61,0.00,,,0.00,meteobridge,2013-10-08 16:16:00,
2013-10-08 12:22:00,59.4,45.9,30.23,East,83,0.0,4.9,61,0.00,,,0.00,meteobridge,2013-10-08 16:22:00,
2013-10-08 12:28:00,59.5,46.0,30.23,ENE,70,2.0,6.9,61,0.00,,,0.00,meteobridge,2013-10-08 16:28:00,
2013-10-08 12:34:00,59.9,47.3,30.23,ENE,59,2.0,2.0,63,0.00,,,0.00,meteobridge,2013-10-08 16:34:00,
2013-10-08 12:40:00,60.1,46.6,30.22,ENE,74,0.9,4.0,61,0.00,,,0.00,meteobridge,2013-10-08 16:40:00,
2013-10-08 12:46:00,59.7,47.1,30.22,East,79,0.0,0.9,63,0.00,,,0.00,meteobridge,2013-10-08 16:46:00,
2013-10-08 12:53:00,59.9,46.8,30.22,ENE,63,0.0,2.9,62,0.00,,,0.00,meteobridge,2013-10-08 16:53:00,
2013-10-08 13:01:00,60.4,46.4,30.22,NE,38,0.9,2.9,60,0.00,,,0.00,meteobridge,2013-10-08 17:01:00,
2013-10-08 13:07:00,61.0,47.5,30.22,West,273,0.9,0.9,61,0.00,,,0.00,meteobridge,2013-10-08 17:07:00,
2013-10-08 13:13:00,61.3,47.8,30.21,SE,125,0.0,2.9,61,0.00,,,0.00,meteobridge,2013-10-08 17:13:00,
2013-10-08 13:19:00,61.5,47.5,30.21,ENE,66,2.0,2.9,60,0.00,,,0.00,meteobridge,2013-10-08 17:19:00,
2013-10-08 13:26:00,62.1,48.0,30.21,East,101,0.0,2.9,60,0.00,,,0.00,meteobridge,2013-10-08 17:26:00,
2013-10-08 13:32:00,62.6,47.1,30.21,NE,53,2.9,4.9,57,0.00,,,0.00,meteobridge,2013-10-08 17:32:00,
2013-10-08 13:38:00,62.2,47.3,30.21,ENE,64,0.9,2.9,58,0.00,,,0.00,meteobridge,2013-10-08 17:38:00,
2013-10-08 13:44:00,62.4,46.9,30.21,NNW,340,4.9,4.9,57,0.00,,,0.00,meteobridge,2013-10-08 17:44:00,
2013-10-08 13:50:00,62.8,47.3,30.20,NNW,330,2.0,4.0,57,0.00,,,0.00,meteobridge,2013-10-08 17:50:00,
2013-10-08 13:56:00,63.0,48.4,30.21,WSW,257,0.9,0.9,59,0.00,,,0.00,meteobridge,2013-10-08 17:56:00,
2013-10-08 14:03:00,63.9,47.3,30.20,NNW,333,0.0,4.0,55,0.00,,,0.00,meteobridge,2013-10-08 18:03:00,
2013-10-08 14:09:00,63.3,48.4,30.20,East,94,0.9,0.9,58,0.00,,,0.00,meteobridge,2013-10-08 18:09:00,
2013-10-08 14:15:00,63.1,47.1,30.20,NE,51,0.0,2.9,56,0.00,,,0.00,meteobridge,2013-10-08 18:15:00,
2013-10-08 14:21:00,63.1,46.8,30.20,NNE,18,2.0,4.0,55,0.00,,,0.00,meteobridge,2013-10-08 18:21:00,
2013-10-08 14:27:00,63.5,46.6,30.21,NNE,20,0.9,0.9,54,0.00,,,0.00,meteobridge,2013-10-08 18:27:00,
2013-10-08 14:34:00,63.5,47.5,30.21,ENE,58,2.0,2.0,56,0.00,,,0.00,meteobridge,2013-10-08 18:34:00,
2013-10-08 14:40:00,63.7,47.3,30.22,SSW,210,0.0,0.9,55,0.00,,,0.00,meteobridge,2013-10-08 18:40:00,
2013-10-08 14:46:00,64.4,47.5,30.22,East,86,0.0,0.9,54,0.00,,,0.00,meteobridge,2013-10-08 18:46:00,
2013-10-08 14:52:00,64.2,47.7,30.22,West,269,2.0,2.0,55,0.00,,,0.00,meteobridge,2013-10-08 18:52:00,
2013-10-08 15:01:00,63.9,46.9,30.22,ESE,117,0.0,0.9,54,0.00,,,0.00,meteobridge,2013-10-08 19:01:00,
2013-10-08 15:07:00,63.7,47.3,30.22,East,94,2.0,2.0,55,0.00,,,0.00,meteobridge,2013-10-08 19:07:00,
2013-10-08 15:13:00,63.3,48.7,30.22,ESE,107,0.0,0.0,59,0.00,,,0.00,meteobridge,2013-10-08 19:13:00,
2013-10-08 15:21:00,63.7,47.3,30.22,ENE,70,0.0,2.0,55,0.00,,,0.00,meteobridge,2013-10-08 19:21:00,
2013-10-08 15:28:00,63.3,47.3,30.22,East,90,0.9,2.9,56,0.00,,,0.00,meteobridge,2013-10-08 19:28:00,
2013-10-08 15:34:00,63.0,46.0,30.22,SE,127,0.9,0.9,54,0.00,,,0.00,meteobridge,2013-10-08 19:34:00,
2013-10-08 15:40:00,63.0,46.0,30.22,NNW,332,0.0,4.0,54,0.00,,,0.00,meteobridge,2013-10-08 19:40:00,
2013-10-08 15:47:00,62.8,46.4,30.22,ENE,59,0.0,0.0,55,0.00,,,0.00,meteobridge,2013-10-08 19:47:00,
2013-10-08 15:53:00,62.8,45.9,30.23,NE,46,0.0,0.0,54,0.00,,,0.00,meteobridge,2013-10-08 19:53:00,
2013-10-08 16:00:00,62.8,45.3,30.22,NNE,21,0.9,0.9,53,0.00,,,0.00,meteobridge,2013-10-08 20:00:00,
2013-10-08 16:06:00,62.8,45.3,30.22,SE,125,0.0,0.9,53,0.00,,,0.00,meteobridge,2013-10-08 20:06:00,
2013-10-08 16:12:00,62.6,46.8,30.22,North,352,0.0,2.0,56,0.00,,,0.00,meteobridge,2013-10-08 20:12:00,
2013-10-08 16:19:00,62.8,45.3,30.22,NW,308,0.0,0.9,53,0.00,,,0.00,meteobridge,2013-10-08 20:19:00,
2013-10-08 16:25:00,62.4,46.0,30.22,NNE,23,0.0,0.9,55,0.00,,,0.00,meteobridge,2013-10-08 20:25:00,
2013-10-08 16:31:00,62.4,46.0,30.22,WNW,285,0.0,0.0,55,0.00,,,0.00,meteobridge,2013-10-08 20:31:00,
2013-10-08 16:37:00,62.8,46.4,30.22,East,79,0.0,0.9,55,0.00,,,0.00,meteobridge,2013-10-08 20:37:00,
2013-10-08 16:44:00,63.0,46.9,30.21,East,84,0.0,0.0,56,0.00,,,0.00,meteobridge,2013-10-08 20:44:00,
2013-10-08 16:50:00,63.1,47.7,30.22,East,85,0.0,0.0,57,0.00,,,0.00,meteobridge,2013-10-08 20:50:00,
2013-10-08 16:56:00,63.3,46.9,30.21,ENE,60,0.0,0.0,55,0.00,,,0.00,meteobridge,2013-10-08 20:56:00,
2013-10-08 17:03:00,63.3,47.8,30.21,NW,309,0.0,0.0,57,0.00,,,0.00,meteobridge,2013-10-08 21:03:00,
2013-10-08 17:11:00,62.8,45.9,30.22,North,4,0.0,0.0,54,0.00,,,0.00,meteobridge,2013-10-08 21:11:00,
2013-10-08 17:18:00,62.2,47.3,30.22,NW,315,0.0,0.0,58,0.00,,,0.00,meteobridge,2013-10-08 21:18:00,
2013-10-08 17:24:00,61.9,46.4,30.22,NW,315,0.0,0.0,57,0.00,,,0.00,meteobridge,2013-10-08 21:24:00,
2013-10-08 17:30:00,61.5,46.2,30.22,NNE,22,0.0,0.0,57,0.00,,,0.00,meteobridge,2013-10-08 21:30:00,
2013-10-08 17:40:00,60.6,46.6,30.22,North,350,0.0,0.0,60,0.00,,,0.00,meteobridge,2013-10-08 21:40:00,
2013-10-08 18:26:00,57.0,45.0,30.24,North,1,0.0,0.0,64,0.00,,,0.00,meteobridge,2013-10-08 22:26:00,
2013-10-08 18:34:00,56.8,45.1,30.24,North,1,0.0,0.0,65,0.00,,,0.00,meteobridge,2013-10-08 22:34:00,
2013-10-08 18:40:00,56.7,45.0,30.25,North,1,0.0,0.0,65,0.00,,,0.00,meteobridge,2013-10-08 22:40:00,
2013-10-08 18:47:00,56.3,46.2,30.25,North,1,0.0,0.0,69,0.00,,,0.00,meteobridge,2013-10-08 22:47:00,
2013-10-08 18:53:00,55.8,46.9,30.25,North,1,0.0,0.0,72,0.00,,,0.00,meteobridge,2013-10-08 22:53:00,
2013-10-08 18:59:00,55.0,47.3,30.26,North,3,0.0,0.0,75,0.00,,,0.00,meteobridge,2013-10-08 22:59:00,
2013-10-08 19:05:00,54.5,46.8,30.26,North,0,0.0,0.0,75,0.00,,,0.00,meteobridge,2013-10-08 23:05:00,
2013-10-08 19:12:00,54.3,46.9,30.26,North,0,0.0,0.0,76,0.00,,,0.00,meteobridge,2013-10-08 23:12:00,
2013-10-08 19:18:00,54.1,46.4,30.26,North,359,0.0,0.0,75,0.00,,,0.00,meteobridge,2013-10-08 23:18:00,
2013-10-08 19:25:00,54.1,46.8,30.26,SW,233,0.0,0.0,76,0.00,,,0.00,meteobridge,2013-10-08 23:25:00,
2013-10-08 19:31:00,54.0,46.9,30.26,SW,233,0.0,0.0,77,0.00,,,0.00,meteobridge,2013-10-08 23:31:00,
2013-10-08 19:37:00,53.6,46.6,30.26,SW,233,0.0,0.0,77,0.00,,,0.00,meteobridge,2013-10-08 23:37:00,
2013-10-08 19:44:00,53.6,46.9,30.26,SSW,201,0.0,0.0,78,0.00,,,0.00,meteobridge,2013-10-08 23:44:00,
2013-10-08 19:50:00,53.2,46.9,30.26,South,173,0.0,0.0,79,0.00,,,0.00,meteobridge,2013-10-08 23:50:00,
2013-10-08 19:56:00,53.4,47.1,30.27,ENE,66,0.0,0.0,79,0.00,,,0.00,meteobridge,2013-10-08 23:56:00,
2013-10-08 20:02:00,53.1,47.1,30.27,ENE,65,0.0,0.0,80,0.00,,,0.00,meteobridge,2013-10-09 00:02:00,
2013-10-08 20:09:00,52.3,46.8,30.27,ENE,65,0.0,0.0,81,0.00,,,0.00,meteobridge,2013-10-09 00:09:00,
2013-10-08 20:15:00,52.2,46.6,30.27,ENE,65,0.0,0.0,81,0.00,,,0.00,meteobridge,2013-10-09 00:15:00,
2013-10-08 20:21:00,52.2,46.8,30.27,East,95,0.0,0.0,82,0.00,,,0.00,meteobridge,2013-10-09 00:21:00,
2013-10-08 20:28:00,51.8,46.8,30.27,East,90,0.0,0.0,83,0.00,,,0.00,meteobridge,2013-10-09 00:28:00,
2013-10-08 20:34:00,52.0,46.9,30.27,East,79,0.0,0.0,83,0.00,,,0.00,meteobridge,2013-10-09 00:34:00,
2013-10-08 20:40:00,52.2,46.8,30.27,SE,137,0.0,0.0,82,0.00,,,0.00,meteobridge,2013-10-09 00:40:00,
2013-10-08 20:47:00,52.2,46.8,30.28,East,82,0.0,0.9,82,0.00,,,0.00,meteobridge,2013-10-09 00:47:00,
2013-10-08 20:53:00,52.5,46.6,30.28,East,86,0.0,0.0,80,0.00,,,0.00,meteobridge,2013-10-09 00:53:00,
2013-10-08 20:59:00,52.5,46.6,30.28,East,96,0.0,0.0,80,0.00,,,0.00,meteobridge,2013-10-09 00:59:00,
2013-10-08 21:06:00,52.7,46.4,30.28,ESE,111,0.0,2.0,79,0.00,,,0.00,meteobridge,2013-10-09 01:06:00,
2013-10-08 21:12:00,52.9,46.6,30.28,East,98,0.0,0.9,79,0.00,,,0.00,meteobridge,2013-10-09 01:12:00,
2013-10-08 21:18:00,53.1,46.4,30.28,ESE,105,0.0,0.9,78,0.00,,,0.00,meteobridge,2013-10-09 01:18:00,
2013-10-08 21:24:00,53.2,46.6,30.29,ESE,107,0.9,2.0,78,0.00,,,0.00,meteobridge,2013-10-09 01:24:00,
2013-10-08 21:30:00,53.1,46.4,30.29,East,89,0.0,0.9,78,0.00,,,0.00,meteobridge,2013-10-09 01:30:00,
2013-10-08 21:36:00,53.1,46.4,30.29,East,97,0.0,2.0,78,0.00,,,0.00,meteobridge,2013-10-09 01:36:00,
2013-10-08 21:43:00,52.9,46.2,30.29,East,92,0.9,2.0,78,0.00,,,0.00,meteobridge,2013-10-09 01:43:00,
2013-10-08 21:49:00,52.9,46.6,30.30,East,85,0.9,2.0,79,0.00,,,0.00,meteobridge,2013-10-09 01:49:00,
2013-10-08 21:55:00,52.9,46.2,30.30,East,80,2.0,2.0,78,0.00,,,0.00,meteobridge,2013-10-09 01:55:00,
2013-10-08 22:01:00,52.9,45.9,30.30,ESE,117,0.9,4.9,77,0.00,,,0.00,meteobridge,2013-10-09 02:01:00,
2013-10-08 22:07:00,52.9,45.5,30.30,ENE,77,0.9,2.0,76,0.00,,,0.00,meteobridge,2013-10-09 02:07:00,
2013-10-08 22:13:00,52.7,45.7,30.31,East,91,0.0,2.0,77,0.00,,,0.00,meteobridge,2013-10-09 02:13:00,
2013-10-08 22:19:00,52.5,45.5,30.30,East,81,0.0,0.0,77,0.00,,,0.00,meteobridge,2013-10-09 02:19:00,
2013-10-08 22:26:00,52.3,45.3,30.30,East,96,0.0,0.0,77,0.00,,,0.00,meteobridge,2013-10-09 02:26:00,
2013-10-08 22:32:00,52.3,45.3,30.31,East,91,0.9,2.0,77,0.00,,,0.00,meteobridge,2013-10-09 02:32:00,
2013-10-08 22:38:00,52.2,45.1,30.31,East,87,0.0,0.9,77,0.00,,,0.00,meteobridge,2013-10-09 02:38:00,
2013-10-08 22:45:00,52.0,45.3,30.31,East,84,0.9,2.0,78,0.00,,,0.00,meteobridge,2013-10-09 02:45:00,
2013-10-08 22:51:00,52.0,45.0,30.31,East,89,0.0,2.0,77,0.00,,,0.00,meteobridge,2013-10-09 02:51:00,
2013-10-08 22:57:00,52.2,44.8,30.31,East,94,0.0,2.9,76,0.00,,,0.00,meteobridge,2013-10-09 02:57:00,
2013-10-08 23:03:00,52.2,44.8,30.31,East,87,2.0,2.0,76,0.00,,,0.00,meteobridge,2013-10-09 03:03:00,
2013-10-08 23:09:00,52.2,44.4,30.31,ESE,108,2.0,2.9,75,0.00,,,0.00,meteobridge,2013-10-09 03:09:00,
2013-10-08 23:15:00,52.2,44.1,30.31,ESE,107,4.9,6.0,74,0.00,,,0.00,meteobridge,2013-10-09 03:15:00,
2013-10-08 23:22:00,52.2,44.1,30.31,ENE,69,2.0,2.9,74,0.00,,,0.00,meteobridge,2013-10-09 03:22:00,
2013-10-08 23:28:00,52.2,44.1,30.31,ENE,62,0.9,2.0,74,0.00,,,0.00,meteobridge,2013-10-09 03:28:00,
2013-10-08 23:34:00,52.2,43.7,30.31,ENE,70,0.9,4.0,73,0.00,,,0.00,meteobridge,2013-10-09 03:34:00,
2013-10-08 23:40:00,52.2,43.7,30.31,East,87,2.0,4.9,73,0.00,,,0.00,meteobridge,2013-10-09 03:40:00,
2013-10-08 23:46:00,52.2,43.7,30.31,SSE,148,0.9,2.9,73,0.00,,,0.00,meteobridge,2013-10-09 03:46:00,
2013-10-08 23:52:00,52.2,43.3,30.31,ENE,67,2.0,2.9,72,0.00,,,0.00,meteobridge,2013-10-09 03:52:00,
2013-10-08 23:58:00,52.2,43.7,30.31,ENE,64,0.9,4.0,73,0.00,,,0.00,meteobridge,2013-10-09 03:58:00,